Weather in Podovinnoye

Russia / Chelyabinsk Oblast     54°13′59″N   62°31′15″E
temp.,
°C
wind,
m/s
gust,
m/s
humid.,
%
clouds,
%
prec.,
mm/h
press.,
hPa
HPBL,
m
14 may, fri
fri1423:00+20ne224220 0.0 102511
02:00+19ne11435 0.0 102511
05:00+18n11465 0.0 102611
08:00+22ene11388 0.0 1026183
11:00+28s11265 0.0 10261939
14:00+30wsw11212 0.0 10252723
17:00+30w12211 0.0 10243052
20:00+27sse22285 0.0 102320
15 may, sat
sat1523:00+24s362997 0.0 102396
02:00+20wsw474338 0.0 1023105
05:00+18wnw34415 0.0 102446
08:00+23nnw23415 0.0 1024273
11:00+28wnw23295 0.0 10231115
14:00+30wnw442420 0.0 10223036
17:00+30wnw551916 0.0 10212961
20:00+26wnw223325 0.1 102016
16 may, sun
sun1623:00+22wnw45435 0.6 102162
02:00+19nw45495 0.0 102164
05:00+18nw34548 0.0 102259
08:00+24nw454146 0.0 1022260
11:00+29wnw332881 0.0 10221263
14:00+31wnw44215 0.0 10212501
17:00+32wnw34195 0.0 10203159
20:00+28nw12295 0.0 101911
17 may, mon
mon1723:00+23nw33345 0.0 102021
02:00+21n224452 0.0 102011
05:00+19nnw335271 0.2 102023
08:00+24w22395 0.4 1020188
11:00+29w33270 0.4 10201174
14:00+32w462087 0.0 10183941
17:00+32wnw461923 0.0 10173474
20:00+24n61143100 0.0 1017359
18 may, tue
tue1823:00+21wnw334679 0.2 101730
02:00+19w475469 0.0 1017115
05:00+18wnw3657100 0.0 1017104
08:00+23nw45475 0.0 1017275
11:00+28wnw5835100 0.0 10162072
14:00+30nw692632 0.0 10153363
17:00+29nw792750 0.0 10142907
20:00+23nw254636 0.4 1015124